Time,TemperatureF,DewpointF,PressureIn,WindDirection,WindDirectionDegrees,WindSpeedMPH,WindSpeedGustMPH,Humidity,HourlyPrecipIn,Conditions,Clouds,dailyrainin,SoftwareType,DateUTC
2013-01-16 00:01:00,65.0,62.2,29.95,ENE,68,0.0,0.0,88,0.00,,,0.00,Homeseer,2013-01-16 05:01:00,
2013-01-16 00:02:00,65.0,62.2,29.95,ENE,68,0.0,0.0,88,0.00,,,0.00,Homeseer,2013-01-16 05:02:00,
2013-01-16 00:04:00,65.0,62.2,29.95,ENE,68,0.0,0.0,88,0.00,,,0.00,Homeseer,2013-01-16 05:04:00,
2013-01-16 00:05:00,65.0,62.2,29.95,ENE,68,0.0,0.0,88,0.00,,,0.00,Homeseer,2013-01-16 05:05:00,
2013-01-16 00:10:00,64.0,61.2,29.95,ENE,68,0.0,0.0,88,0.00,,,0.00,Homeseer,2013-01-16 05:10:00,
2013-01-16 01:00:00,62.0,59.7,29.95,ENE,68,0.0,0.0,90,0.00,,,0.00,Homeseer,2013-01-16 06:00:00,
2013-01-16 01:01:00,62.0,60.0,29.95,ENE,68,0.0,0.0,91,0.00,,,0.00,Homeseer,2013-01-16 06:01:00,
2013-01-16 01:05:00,62.0,59.7,29.95,ENE,68,0.0,0.0,90,0.00,,,0.00,Homeseer,2013-01-16 06:05:00,
2013-01-16 01:10:00,62.0,59.7,29.95,ENE,68,0.0,0.0,90,0.00,,,0.00,Homeseer,2013-01-16 06:10:00,
2013-01-16 02:00:00,62.0,60.0,29.95,ENE,68,0.0,0.0,91,0.00,,,0.00,Homeseer,2013-01-16 07:00:00,
2013-01-16 02:01:00,62.0,59.7,29.95,ENE,68,0.0,0.0,90,0.00,,,0.00,Homeseer,2013-01-16 07:01:00,
2013-01-16 02:05:00,62.0,60.0,29.95,ENE,68,0.0,0.0,91,0.00,,,0.00,Homeseer,2013-01-16 07:05:00,
2013-01-16 02:10:00,62.0,60.0,29.95,ENE,68,0.0,0.0,91,0.00,,,0.00,Homeseer,2013-01-16 07:10:00,
2013-01-16 03:00:00,61.0,59.2,29.95,ENE,68,0.0,0.0,92,0.00,,,0.00,Homeseer,2013-01-16 08:00:00,
2013-01-16 03:01:00,61.0,59.2,29.95,ENE,68,0.0,0.0,92,0.00,,,0.00,Homeseer,2013-01-16 08:01:00,
2013-01-16 03:05:00,61.0,59.0,29.95,ENE,68,0.0,0.0,91,0.00,,,0.00,Homeseer,2013-01-16 08:05:00,
2013-01-16 03:10:00,61.0,59.0,29.95,ENE,68,0.0,0.0,91,0.00,,,0.00,Homeseer,2013-01-16 08:10:00,
2013-01-16 04:00:00,61.0,59.2,29.95,ENE,68,0.0,0.0,92,0.00,,,0.00,Homeseer,2013-01-16 09:00:00,
2013-01-16 04:01:00,61.0,59.7,29.95,ENE,68,0.0,0.0,94,0.00,,,0.00,Homeseer,2013-01-16 09:01:00,
2013-01-16 04:05:00,61.0,59.4,29.95,ENE,68,0.0,0.0,93,0.00,,,0.00,Homeseer,2013-01-16 09:05:00,
2013-01-16 04:10:00,61.0,59.7,29.95,ENE,68,0.0,0.0,94,0.00,,,0.00,Homeseer,2013-01-16 09:10:00,
2013-01-16 05:00:00,60.0,58.2,29.95,ENE,68,0.0,0.0,92,0.00,,,0.00,Homeseer,2013-01-16 10:00:00,
2013-01-16 05:01:00,60.0,58.5,29.95,ENE,68,0.0,0.0,93,0.00,,,0.00,Homeseer,2013-01-16 10:01:00,
2013-01-16 05:05:00,60.0,58.2,29.95,ENE,68,0.0,0.0,92,0.00,,,0.00,Homeseer,2013-01-16 10:05:00,
2013-01-16 05:10:00,60.0,58.5,29.95,ENE,68,0.0,0.0,93,0.00,,,0.00,Homeseer,2013-01-16 10:10:00,
2013-01-16 06:00:00,60.0,58.5,29.95,ENE,68,0.0,0.0,93,0.00,,,0.00,Homeseer,2013-01-16 11:00:00,
2013-01-16 06:01:00,59.0,57.5,29.95,ENE,68,0.0,0.0,93,0.00,,,0.00,Homeseer,2013-01-16 11:01:00,
2013-01-16 06:05:00,60.0,58.7,29.95,ENE,68,0.0,0.0,94,0.00,,,0.00,Homeseer,2013-01-16 11:05:00,
2013-01-16 06:10:00,59.0,57.2,29.95,ENE,68,0.0,0.0,92,0.00,,,0.00,Homeseer,2013-01-16 11:10:00,
2013-01-16 07:00:00,60.0,58.7,29.95,ENE,68,0.0,0.0,94,0.00,,,0.00,Homeseer,2013-01-16 12:00:00,
2013-01-16 07:01:00,60.0,58.7,29.95,ENE,68,0.0,0.0,94,0.00,,,0.00,Homeseer,2013-01-16 12:01:00,
2013-01-16 07:05:00,60.0,58.7,29.95,ENE,68,0.0,0.0,94,0.00,,,0.00,Homeseer,2013-01-16 12:05:00,
2013-01-16 07:10:00,60.0,58.7,29.95,ENE,68,0.0,0.0,94,0.00,,,0.00,Homeseer,2013-01-16 12:10:00,
2013-01-16 08:00:00,60.0,59.3,29.95,ENE,68,0.0,0.0,97,0.00,,,0.00,Homeseer,2013-01-16 13:00:00,
2013-01-16 08:01:00,61.0,60.3,29.95,ENE,68,0.0,0.0,97,0.00,,,0.00,Homeseer,2013-01-16 13:01:00,
2013-01-16 08:05:00,61.0,60.3,29.95,ENE,68,0.0,0.0,97,0.00,,,0.00,Homeseer,2013-01-16 13:05:00,
2013-01-16 08:10:00,61.0,60.3,29.95,ENE,68,0.0,0.0,97,0.00,,,0.00,Homeseer,2013-01-16 13:10:00,
2013-01-16 09:00:00,63.0,62.8,29.95,ENE,68,0.0,0.0,99,0.00,,,0.00,Homeseer,2013-01-16 14:00:00,
2013-01-16 09:01:00,64.0,63.6,29.95,ENE,68,0.0,0.0,98,0.00,,,0.00,Homeseer,2013-01-16 14:01:00,
2013-01-16 09:05:00,64.0,63.8,29.95,ENE,68,0.0,0.0,99,0.00,,,0.00,Homeseer,2013-01-16 14:05:00,
2013-01-16 09:10:00,64.0,63.6,29.95,ENE,68,0.0,0.0,98,0.00,,,0.00,Homeseer,2013-01-16 14:10:00,
2013-01-16 10:00:00,68.0,67.1,29.95,ENE,68,0.0,0.0,96,0.00,,,0.00,Homeseer,2013-01-16 15:00:00,
2013-01-16 10:01:00,70.0,68.3,29.95,SSW,202,0.0,0.0,93,0.00,,,0.00,Homeseer,2013-01-16 15:01:00,
2013-01-16 10:05:00,69.0,67.8,29.95,SSW,202,5.0,7.0,95,0.00,,,0.00,Homeseer,2013-01-16 15:05:00,
2013-01-16 10:10:00,70.0,68.3,29.95,SSW,202,0.0,0.0,93,0.00,,,0.00,Homeseer,2013-01-16 15:10:00,
2013-01-16 11:00:00,74.0,69.4,29.95,ENE,68,7.0,9.0,82,0.00,,,0.00,Homeseer,2013-01-16 16:00:00,
2013-01-16 11:01:00,75.0,68.3,29.95,ENE,68,3.0,6.0,75,0.00,,,0.00,Homeseer,2013-01-16 16:01:00,
2013-01-16 11:05:00,74.0,68.8,29.95,ESE,112,0.0,0.0,80,0.00,,,0.00,Homeseer,2013-01-16 16:05:00,
2013-01-16 11:10:00,75.0,68.0,29.95,East,90,1.0,4.0,74,0.00,,,0.00,Homeseer,2013-01-16 16:10:00,
2013-01-16 12:00:00,76.0,68.4,29.95,ESE,112,5.0,10.0,72,0.00,,,0.00,Homeseer,2013-01-16 17:00:00,
2013-01-16 12:01:00,75.0,68.0,29.95,NNE,22,3.0,4.0,74,0.00,,,0.00,Homeseer,2013-01-16 17:01:00,
2013-01-16 12:05:00,76.0,68.4,29.95,East,90,4.0,7.0,72,0.00,,,0.00,Homeseer,2013-01-16 17:05:00,
2013-01-16 12:10:00,75.0,67.7,29.95,East,90,0.0,0.0,73,0.00,,,0.00,Homeseer,2013-01-16 17:10:00,
2013-01-16 13:00:00,78.0,68.6,29.95,ESE,112,7.0,8.0,67,0.00,,,0.00,Homeseer,2013-01-16 18:00:00,
2013-01-16 13:01:00,78.0,69.0,29.95,ESE,112,1.0,4.0,68,0.00,,,0.00,Homeseer,2013-01-16 18:01:00,
2013-01-16 13:05:00,78.0,68.6,29.95,East,90,1.0,4.0,67,0.00,,,0.00,Homeseer,2013-01-16 18:05:00,
2013-01-16 13:10:00,78.0,69.0,29.95,ENE,68,0.0,0.0,68,0.00,,,0.00,Homeseer,2013-01-16 18:10:00,
2013-01-16 14:01:00,79.0,67.8,29.95,ESE,112,2.0,5.0,62,0.00,,,0.00,Homeseer,2013-01-16 19:01:00,
2013-01-16 14:06:00,79.0,67.5,29.95,ESE,112,0.0,0.0,61,0.00,,,0.00,Homeseer,2013-01-16 19:06:00,
2013-01-16 14:11:00,79.0,67.1,29.95,ESE,112,3.0,8.0,60,0.00,,,0.00,Homeseer,2013-01-16 19:11:00,
2013-01-16 15:00:00,81.0,67.0,29.95,WSW,248,11.0,13.0,55,0.00,,,0.00,Homeseer,2013-01-16 20:00:00,
2013-01-16 15:01:00,81.0,67.4,29.95,ESE,112,0.0,0.0,56,0.00,,,0.00,Homeseer,2013-01-16 20:01:00,
2013-01-16 15:05:00,81.0,67.0,29.95,SSE,158,0.0,0.0,55,0.00,,,0.00,Homeseer,2013-01-16 20:05:00,
2013-01-16 15:10:00,81.0,67.4,29.95,SE,135,0.0,0.0,56,0.00,,,0.00,Homeseer,2013-01-16 20:10:00,
2013-01-16 16:00:00,81.0,67.8,29.95,SSW,202,0.0,0.0,57,0.00,,,0.00,Homeseer,2013-01-16 21:00:00,
2013-01-16 16:01:00,81.0,67.0,29.95,South,180,1.0,2.0,55,0.00,,,0.00,Homeseer,2013-01-16 21:01:00,
2013-01-16 16:05:00,81.0,67.8,29.95,SSW,202,0.0,0.0,57,0.00,,,0.00,Homeseer,2013-01-16 21:05:00,
2013-01-16 16:10:00,81.0,67.4,29.95,South,180,4.0,5.0,56,0.00,,,0.00,Homeseer,2013-01-16 21:10:00,
2013-01-16 17:00:00,79.0,67.1,29.95,SW,225,0.0,0.0,60,0.00,,,0.00,Homeseer,2013-01-16 22:00:00,
2013-01-16 17:01:00,79.0,67.1,29.95,ESE,112,2.0,3.0,60,0.00,,,0.00,Homeseer,2013-01-16 22:01:00,
2013-01-16 17:05:00,79.0,66.7,29.95,WSW,248,2.0,3.0,59,0.00,,,0.00,Homeseer,2013-01-16 22:05:00,
2013-01-16 17:10:00,79.0,66.7,29.95,SW,225,0.0,0.0,59,0.00,,,0.00,Homeseer,2013-01-16 22:10:00,
2013-01-16 18:00:00,74.0,64.9,29.95,WSW,248,0.0,0.0,67,0.00,,,0.00,Homeseer,2013-01-16 23:00:00,
2013-01-16 18:01:00,73.0,64.3,29.95,SE,135,0.0,0.0,68,0.00,,,0.00,Homeseer,2013-01-16 23:01:00,
2013-01-16 18:05:00,74.0,64.9,29.95,ESE,112,0.0,0.0,67,0.00,,,0.00,Homeseer,2013-01-16 23:05:00,
2013-01-16 18:10:00,74.0,65.2,29.95,SSE,158,0.0,0.0,68,0.00,,,0.00,Homeseer,2013-01-16 23:10:00,
2013-01-16 19:00:00,71.0,64.2,29.95,ESE,112,0.0,0.0,74,0.00,,,0.00,Homeseer,2013-01-17 00:00:00,
2013-01-16 19:01:00,71.0,64.8,29.95,ESE,112,0.0,0.0,76,0.00,,,0.00,Homeseer,2013-01-17 00:01:00,
2013-01-16 19:05:00,71.0,64.2,29.95,ESE,112,0.0,0.0,74,0.00,,,0.00,Homeseer,2013-01-17 00:05:00,
2013-01-16 19:10:00,71.0,64.8,29.95,ESE,112,0.0,0.0,76,0.00,,,0.00,Homeseer,2013-01-17 00:10:00,
2013-01-16 20:00:00,69.0,64.3,29.95,SE,135,0.0,0.0,81,0.00,,,0.00,Homeseer,2013-01-17 01:00:00,
2013-01-16 20:01:00,68.0,63.3,29.95,SE,135,0.0,0.0,81,0.00,,,0.00,Homeseer,2013-01-17 01:01:00,
2013-01-16 20:05:00,69.0,64.0,29.95,SE,135,0.0,0.0,80,0.00,,,0.00,Homeseer,2013-01-17 01:05:00,
2013-01-16 20:10:00,68.0,63.3,29.95,SE,135,0.0,0.0,81,0.00,,,0.00,Homeseer,2013-01-17 01:10:00,
2013-01-16 21:00:00,67.0,63.4,29.95,NNW,338,0.0,0.0,85,0.00,,,0.00,Homeseer,2013-01-17 02:00:00,
2013-01-16 21:01:00,67.0,63.1,29.95,ESE,112,0.0,0.0,84,0.00,,,0.00,Homeseer,2013-01-17 02:01:00,
2013-01-16 21:05:00,67.0,63.1,29.95,NNW,338,0.0,0.0,84,0.00,,,0.00,Homeseer,2013-01-17 02:05:00,
2013-01-16 21:10:00,67.0,63.1,29.95,NNW,338,0.0,0.0,84,0.00,,,0.00,Homeseer,2013-01-17 02:10:00,
2013-01-16 22:00:00,68.0,65.1,29.95,South,180,0.0,0.0,88,0.00,,,0.00,Homeseer,2013-01-17 03:00:00,
2013-01-16 22:01:00,68.0,64.9,29.95,South,180,0.0,0.0,87,0.00,,,0.00,Homeseer,2013-01-17 03:01:00,
2013-01-16 22:05:00,68.0,64.9,29.95,South,180,0.0,0.0,87,0.00,,,0.00,Homeseer,2013-01-17 03:05:00,
2013-01-16 22:10:00,68.0,65.1,29.95,South,180,0.0,0.0,88,0.00,,,0.00,Homeseer,2013-01-17 03:10:00,
2013-01-16 23:00:00,69.0,66.4,29.95,South,180,0.0,0.0,89,0.00,,,0.00,Homeseer,2013-01-17 04:00:00,
2013-01-16 23:01:00,69.0,66.1,29.95,South,180,0.0,0.0,88,0.00,,,0.00,Homeseer,2013-01-17 04:01:00,
2013-01-16 23:05:00,69.0,66.1,29.95,South,180,0.0,0.0,88,0.00,,,0.00,Homeseer,2013-01-17 04:05:00,
2013-01-16 23:10:00,69.0,66.1,29.95,South,180,0.0,0.0,88,0.00,,,0.00,Homeseer,2013-01-17 04:10:00,